Temp
16 17 18 19 20 21 20 20 20 22 19 17 19 20 21 16 14 15 14 12 11 9 8 9 9 9 9 8 8 8 9 9 9 9 10 10 10 10 10 10 10 10 9 9
15 16 19 20 19 19 18 18 19 21 18 16 19 19 20 20 16 15 15 13 11 8 6 7 8 8 7 7 8 8 8 8 8 9 9 10 10 10 10 10 10 10 10 10
17 19 17 17 16 17 18 18 19 19 16 16 17 17 18 19 17 14 13 12 10 8 7 5 7 7 7 7 8 8 8 8 9 9 10 10 11 11 10 10 10 10 9 9
17 18 15 15 17 17 17 19 18 18 16 17 17 17 19 20 15 12 10 10 9 8 7 5 6 7 8 8 8 9 9 9 9 9 10 10 11 10 10 9 9 9 8 8
17 14 14 15 16 17 17 16 16 16 16 16 17 14 18 18 16 13 10 9 9 7 6 5 6 7 8 8 9 9 9 10 10 10 10 10 10 9 9 8 7 7 6 6
16 12 15 16 13 15 14 14 13 14 15 14 16 16 18 18 16 16 10 8 8 6 5 5 7 8 8 8 9 9 9 9 9 8 8 8 8 8 7 7 6 6 6 5
15 14 14 13 13 12 14 14 14 14 13 13 15 16 17 19 15 16 11 8 8 6 5 4 6 7 7 8 8 8 8 8 8 8 7 7 7 6 6 6 6 5 5 4
16 15 15 13 15 16 12 15 15 13 14 15 10 13 17 15 13 10 11 9 7 6 5 4 6 6 7 7 8 8 7 7 7 7 6 6 6 6 5 5 5 4 4 3
16 16 14 14 15 16 13 13 16 12 7 11 15 15 16 9 8 8 10 8 7 5 4 4 5 6 7 7 7 7 6 6 6 6 6 6 6 5 5 4 4 3 3 2
16 15 12 11 11 12 13 14 11 12 11 13 16 16 17 9 10 8 9 8 6 5 4 4 5 6 6 6 6 6 5 5 5 5 5 5 4 4 3 3 2 2 2 1
15 15 11 10 11 13 11 12 13 14 13 14 15 17 17 16 13 9 8 7 6 5 4 4 5 6 6 6 5 5 5 5 5 4 4 4 4 3 2 2 2 1 0 -0
13 14 13 12 13 12 15 14 13 13 11 12 12 16 12 14 15 11 8 7 6 5 4 4 4 5 5 5 5 5 5 5 4 4 4 3 2 2 2 1 1 0 -0 -1
12 10 9 11 10 9 10 12 13 13 10 11 12 15 11 10 11 11 10 8 7 5 4 4 3 5 5 5 5 5 4 4 4 3 3 2 2 1 1 0 -0 -1 -1 -1
12 9 9 14 15 14 10 11 11 12 11 12 13 15 10 10 10 9 9 8 7 5 4 4 3 4 4 4 5 4 4 3 3 3 2 2 1 0 0 -0 -1 -1 -2 -2
10 8 9 11 13 14 12 11 11 10 12 12 14 15 16 13 12 11 9 8 6 5 5 4 3 3 3 4 4 4 3 3 3 2 2 1 0 -0 -0 -1 -1 -2 -2 -2
7 7 8 8 10 11 10 12 12 11 11 13 14 15 18 16 13 12 10 8 7 6 5 4 4 3 3 4 3 4 4 4 3 2 2 1 -0 -1 -1 -1 -2 -2 -2 -2
5 5 6 8 9 9 6 8 10 12 12 13 12 14 9 11 10 10 9 8 7 7 6 4 4 4 4 3 5 5 5 3 3 2 1 0 -1 -0 -1 -1 -2 -2 -3 -3
5 4 6 8 6 8 11 13 10 11 12 12 11 5 6 8 9 10 10 9 8 6 5 4 4 3 3 4 5 4 4 3 3 2 1 -0 -0 -1 -1 -2 -2 -3 -3 -3
4 5 6 7 8 10 11 6 8 10 11 12 9 6 5 6 7 7 8 7 7 6 5 5 4 4 5 5 5 4 4 3 2 1 0 0 -0 -1 -1 -2 -2 -3 -3 -3
0 3 5 5 8 9 9 8 7 10 8 7 6 4 2 4 6 7 8 7 7 6 6 5 4 4 5 4 4 4 3 3 2 2 1 0 -0 -1 -1 -2 -2 -3 -3 -4
2 2 4 6 7 7 4 3 5 7 7 2 4 3 3 5 7 7 7 6 6 6 5 4 4 4 4 4 3 3 2 2 2 1 1 0 -0 -1 -1 -2 -2 -3 -3 -4
5 4 5 5 5 6 4 2 7 6 2 4 5 5 5 5 5 6 5 5 5 4 4 4 4 3 3 3 2 2 2 1 1 0 0 -0 -1 -1 -1 -2 -2 -3 -3 -5
4 6 6 6 5 1 2 2 4 5 6 7 6 6 5 4 4 5 4 4 4 4 3 3 3 2 2 2 1 1 1 1 0 -0 -0 -1 -1 -1 -2 -2 -2 -3 -4 -5
2 1 3 2 -1 -1 0 2 4 5 5 6 6 6 5 5 4 4 3 3 3 3 3 2 2 1 1 1 1 0 0 0 -0 -1 -1 -1 -1 -2 -2 -3 -3 -4 -4 -5
1 1 1 -1 -1 -1 -3 -1 3 4 4 4 5 5 5 4 4 4 3 3 3 2 2 1 1 1 1 1 0 0 -0 -0 -0 -1 -1 -1 -2 -2 -3 -3 -4 -4 -5 -6
0 1 2 2 1 1 0 2 3 3 4 4 4 4 4 4 4 4 3 2 2 2 1 1 0 0 -0 -0 -0 -0 -0 -1 -1 -2 -2 -2 -3 -3 -4 -4 -5 -5 -6 -7
Height
1531 1529 1524 1520 1521 1518 1520 1521 1520 1514 1523 1528 1521 1518 1515 1525 1528 1528 1530 1532 1534 1535 1534 1534 1535 1536 1537 1538 1539 1540 1542 1544 1546 1548 1549 1551 1553 1555 1557 1558 1559 1560 1562 1562
1530 1523 1515 1516 1518 1519 1523 1523 1520 1514 1523 1528 1519 1515 1512 1513 1517 1521 1524 1527 1530 1533 1534 1534 1535 1536 1537 1539 1539 1541 1544 1546 1547 1548 1549 1550 1551 1553 1556 1558 1560 1561 1562 1562
1515 1510 1513 1518 1522 1524 1520 1520 1517 1518 1525 1527 1522 1514 1508 1503 1510 1517 1520 1524 1527 1530 1532 1533 1534 1535 1537 1538 1540 1541 1543 1546 1548 1550 1551 1551 1552 1554 1555 1557 1559 1560 1561 1562
1514 1509 1514 1518 1517 1519 1518 1513 1518 1519 1525 1521 1518 1509 1493 1491 1504 1511 1516 1519 1522 1525 1529 1531 1531 1534 1535 1538 1539 1541 1543 1546 1548 1551 1553 1554 1554 1554 1557 1558 1559 1560 1561 1561
1502 1511 1514 1514 1511 1515 1515 1517 1519 1520 1522 1520 1515 1525 1485 1486 1494 1498 1507 1513 1517 1520 1523 1526 1528 1531 1533 1536 1539 1541 1544 1547 1549 1551 1553 1554 1555 1555 1557 1558 1560 1561 1562 1562
1503 1509 1509 1507 1514 1514 1519 1522 1526 1526 1524 1519 1509 1510 1475 1476 1479 1483 1498 1506 1510 1514 1519 1522 1525 1529 1532 1534 1537 1540 1543 1545 1548 1551 1553 1555 1556 1557 1556 1557 1559 1560 1561 1561
1502 1501 1505 1509 1512 1519 1517 1520 1524 1524 1528 1512 1499 1496 1471 1466 1476 1476 1487 1498 1506 1512 1517 1521 1523 1527 1530 1533 1536 1539 1542 1544 1546 1549 1551 1553 1555 1557 1557 1557 1557 1558 1560 1562
1490 1492 1491 1498 1492 1497 1511 1508 1513 1521 1508 1498 1517 1495 1470 1469 1476 1480 1485 1494 1502 1508 1513 1517 1520 1524 1528 1531 1535 1538 1540 1543 1545 1548 1550 1551 1551 1554 1557 1559 1559 1558 1560 1562
1481 1480 1485 1490 1493 1494 1506 1510 1501 1515 1533 1519 1485 1477 1467 1477 1480 1482 1483 1489 1495 1501 1507 1511 1516 1520 1524 1528 1532 1535 1538 1541 1543 1545 1547 1549 1550 1551 1553 1557 1558 1557 1558 1560
1470 1479 1488 1494 1497 1495 1497 1496 1514 1513 1516 1502 1466 1463 1454 1472 1470 1478 1480 1484 1492 1498 1503 1507 1510 1514 1518 1524 1528 1531 1535 1539 1541 1543 1544 1547 1550 1552 1552 1553 1555 1556 1556 1557
1471 1475 1489 1494 1489 1483 1497 1497 1494 1490 1489 1485 1472 1451 1439 1444 1454 1463 1471 1477 1482 1487 1493 1498 1504 1509 1513 1517 1521 1525 1529 1532 1536 1540 1543 1543 1546 1549 1549 1549 1551 1554 1554 1554
1463 1466 1469 1474 1473 1478 1473 1477 1483 1484 1490 1484 1478 1442 1445 1444 1447 1457 1466 1472 1478 1483 1488 1494 1499 1503 1507 1510 1515 1520 1523 1527 1532 1535 1538 1540 1543 1545 1546 1545 1548 1550 1549 1552
1459 1471 1479 1474 1480 1483 1477 1471 1469 1472 1482 1472 1474 1434 1449 1450 1452 1456 1460 1465 1471 1478 1485 1490 1495 1498 1502 1506 1510 1514 1519 1523 1527 1530 1533 1537 1538 1540 1540 1542 1544 1546 1545 1547
1445 1459 1454 1439 1434 1441 1461 1460 1463 1469 1471 1450 1443 1436 1451 1450 1450 1453 1456 1461 1467 1472 1477 1481 1486 1489 1495 1501 1504 1508 1514 1519 1523 1526 1529 1532 1535 1538 1538 1538 1540 1541 1543 1543
1445 1455 1452 1439 1435 1436 1443 1446 1452 1454 1433 1451 1411 1432 1433 1440 1444 1445 1450 1458 1463 1467 1472 1474 1479 1483 1487 1494 1497 1503 1508 1513 1517 1521 1524 1527 1530 1531 1533 1533 1536 1537 1539 1540
1444 1446 1447 1440 1435 1440 1442 1436 1434 1433 1434 1433 1422 1417 1422 1427 1437 1443 1447 1451 1456 1460 1464 1467 1471 1476 1481 1486 1491 1495 1502 1506 1510 1513 1517 1520 1524 1525 1526 1529 1531 1532 1534 1535
1445 1446 1447 1429 1435 1441 1450 1404 1429 1417 1419 1418 1422 1404 1427 1430 1435 1440 1443 1449 1452 1454 1457 1462 1465 1470 1474 1479 1487 1492 1496 1501 1504 1508 1512 1515 1518 1521 1522 1523 1524 1526 1527 1529
1428 1435 1437 1425 1437 1426 1383 1396 1406 1409 1408 1414 1414 1422 1422 1424 1430 1435 1440 1446 1448 1451 1456 1459 1463 1468 1473 1480 1486 1490 1492 1495 1499 1502 1505 1509 1512 1517 1518 1518 1518 1520 1521 1522
1420 1424 1424 1421 1415 1398 1387 1404 1404 1401 1392 1402 1410 1419 1423 1426 1429 1433 1438 1442 1444 1449 1453 1456 1461 1466 1471 1476 1479 1482 1486 1489 1492 1496 1499 1503 1506 1508 1510 1512 1513 1514 1514 1515
1423 1422 1419 1422 1406 1395 1384 1391 1397 1399 1401 1396 1405 1413 1419 1423 1431 1429 1431 1437 1442 1446 1450 1453 1458 1463 1467 1471 1475 1478 1481 1483 1486 1489 1493 1497 1499 1501 1502 1506 1507 1507 1506 1507
1420 1420 1410 1405 1401 1395 1398 1401 1402 1405 1398 1399 1403 1409 1414 1415 1420 1424 1428 1433 1438 1443 1447 1451 1455 1460 1464 1467 1470 1473 1476 1478 1481 1485 1488 1492 1494 1496 1496 1499 1500 1499 1500 1500
1396 1404 1403 1405 1402 1394 1397 1402 1397 1397 1399 1400 1405 1409 1411 1415 1419 1423 1427 1431 1436 1440 1445 1449 1453 1457 1461 1464 1466 1469 1471 1476 1478 1481 1484 1486 1488 1490 1491 1491 1492 1492 1492 1492
1391 1385 1387 1390 1388 1399 1398 1397 1397 1397 1398 1402 1406 1407 1411 1415 1419 1422 1425 1430 1435 1439 1444 1448 1452 1455 1458 1461 1463 1465 1469 1471 1473 1475 1478 1480 1481 1483 1483 1484 1484 1484 1484 1483
1389 1390 1386 1394 1401 1401 1399 1400 1398 1399 1401 1402 1404 1406 1409 1413 1418 1423 1427 1431 1434 1437 1441 1445 1449 1452 1455 1457 1458 1460 1463 1466 1468 1469 1470 1473 1476 1474 1475 1475 1476 1476 1475 1475
1385 1388 1391 1399 1401 1403 1404 1402 1402 1401 1402 1403 1405 1406 1408 1412 1417 1422 1426 1429 1434 1436 1439 1443 1446 1448 1451 1454 1453 1454 1456 1459 1461 1462 1463 1463 1466 1466 1466 1467 1467 1467 1467 1467
1382 1384 1384 1383 1389 1392 1396 1396 1397 1400 1401 1402 1404 1407 1410 1414 1418 1421 1425 1427 1431 1434 1436 1439 1442 1444 1446 1447 1447 1448 1448 1450 1452 1454 1455 1455 1457 1457 1458 1458 1458 1458 1459 1459
Wind_Speed
11 9 14 18 16 17 8 10 12 8 4 4 13 15 12 17 15 16 14 13 11 9 8 8 9 12 13 16 17 18 19 20 18 17 17 16 15 15 11 8 7 5 4 2
5 16 18 13 11 14 13 15 16 13 4 4 12 17 15 17 23 21 18 16 14 11 9 10 12 15 17 19 20 20 20 20 19 18 18 17 16 15 14 13 10 9 7 6
17 4 8 10 8 12 16 16 14 14 2 10 12 19 22 24 19 14 15 15 14 14 13 12 14 15 18 19 20 20 19 17 16 17 19 20 20 18 15 13 10 9 7 6
14 14 5 10 16 15 16 14 14 12 7 10 6 10 12 11 16 17 18 19 19 18 16 15 16 18 20 22 23 23 23 23 23 21 18 15 15 16 14 12 10 7 5 4
6 10 12 13 12 11 8 2 7 11 14 15 18 9 13 7 14 18 23 24 23 22 20 20 20 24 26 27 27 26 24 23 20 16 14 13 13 13 13 11 9 7 5 5
14 2 7 11 3 7 10 5 2 3 8 12 18 16 14 13 14 13 23 26 27 26 24 23 26 28 29 29 28 26 24 21 18 16 14 12 11 12 12 10 7 5 5 5
14 16 6 6 6 3 12 7 4 5 6 8 1 13 17 2 5 9 24 30 29 26 25 24 29 29 29 28 27 25 22 19 18 16 15 14 12 10 8 7 5 4 3 3
15 10 22 17 22 10 18 17 6 6 6 5 2 9 7 3 8 6 20 27 28 28 27 28 31 30 30 29 27 24 22 19 18 16 13 12 11 9 6 4 4 4 3 2
12 11 6 7 10 16 7 12 13 4 2 4 7 10 7 7 7 8 21 28 31 32 31 33 32 32 33 31 28 25 22 19 18 16 14 12 10 11 9 8 6 5 4 3
5 6 5 5 4 4 9 8 6 6 6 8 9 14 10 9 15 14 20 28 29 30 31 34 37 37 35 32 29 26 22 19 17 16 16 15 13 11 10 9 7 6 4 4
8 7 6 7 11 17 7 9 8 6 9 4 5 7 9 13 16 20 21 28 34 36 36 37 40 39 37 34 32 29 25 22 20 19 18 16 15 15 13 11 8 7 5 3
14 4 11 14 4 9 17 14 20 6 6 6 4 11 3 3 11 21 24 28 31 35 36 37 39 40 38 37 34 31 28 25 22 21 20 19 19 17 15 12 10 8 5 5
13 5 3 4 1 2 9 15 16 19 1 14 8 8 3 6 8 17 23 26 30 32 33 34 37 42 42 39 35 33 30 27 25 24 23 23 22 20 17 14 12 10 7 6
15 6 11 18 6 8 9 16 22 17 12 17 25 17 6 10 12 15 20 23 28 34 36 37 38 42 43 40 38 35 32 29 27 25 25 26 24 21 19 16 15 12 10 9
11 9 17 23 22 11 8 14 23 28 34 17 32 24 14 16 15 22 23 23 26 29 33 37 38 39 41 41 38 34 32 31 29 27 28 29 27 25 23 20 18 15 13 13
3 5 13 22 21 20 21 19 23 30 30 31 32 29 5 20 22 16 21 23 26 29 34 37 37 39 41 42 40 35 32 32 31 31 31 30 30 29 26 22 21 19 18 18
11 7 6 17 10 14 5 38 24 26 30 24 28 31 4 6 11 16 17 19 25 31 35 35 39 40 41 42 36 32 29 30 32 33 32 31 32 30 27 25 24 24 23 23
10 13 7 9 5 11 20 10 15 29 26 21 21 1 2 10 16 20 16 27 29 27 26 30 33 30 34 31 28 26 27 29 31 33 33 31 30 30 30 29 28 28 28 27
3 10 5 6 11 11 16 5 8 12 23 22 10 9 8 14 9 8 18 22 20 22 27 28 28 28 25 24 23 23 24 26 28 29 31 29 30 31 32 31 31 30 30 30
1 5 7 4 6 10 2 5 2 7 10 10 17 13 10 14 7 7 22 16 19 18 18 21 24 23 21 21 21 21 22 23 24 25 25 26 28 29 30 30 31 30 31 31
4 3 13 13 6 5 3 7 6 7 2 4 17 18 18 6 6 8 16 23 19 19 20 22 22 19 17 17 18 20 22 23 21 19 21 23 24 26 26 28 29 31 32 32
11 9 6 6 5 10 11 4 7 1 6 14 15 18 21 15 11 10 17 21 22 22 21 19 17 14 13 14 19 23 24 20 18 19 22 23 24 26 28 28 30 30 31 32
5 4 4 3 1 3 9 1 7 5 6 5 12 16 17 17 13 17 22 23 23 22 19 17 14 12 11 15 20 24 23 22 19 21 23 25 27 28 30 32 32 31 31 31
3 3 4 4 1 1 3 3 7 7 7 7 10 14 18 19 18 20 22 22 21 20 17 14 13 13 13 15 21 25 27 26 23 24 25 28 31 31 32 33 34 33 32 32
2 7 5 4 4 5 8 9 12 14 14 10 13 15 17 18 18 18 20 20 19 15 14 15 16 17 17 19 22 23 27 33 30 29 28 30 32 33 33 33 33 34 33 32
6 5 4 3 17 8 16 23 26 26 23 18 17 17 15 13 14 18 22 21 19 17 16 18 20 21 20 21 22 25 27 34 38 35 33 32 32 33 32 32 33 33 33 33
Wind_Direction
201 216 218 224 226 251 289 282 266 269 101 258 243 251 224 201 214 218 213 213 207 198 207 196 174 160 148 135 132 131 135 138 142 145 149 154 156 149 146 141 127 114 101 82
185 229 236 241 267 235 239 253 256 264 150 253 270 264 260 227 213 220 221 213 200 188 175 174 167 160 152 148 144 141 143 145 152 155 153 151 146 136 125 113 107 99 89 77
225 225 237 198 211 218 234 240 252 260 144 239 273 267 255 244 212 216 226 212 196 185 173 169 161 161 161 156 151 150 151 153 150 147 142 135 129 125 123 120 116 111 102 85
243 238 167 205 227 219 243 227 254 262 251 261 166 281 278 242 207 211 208 201 189 178 170 166 161 160 158 155 152 148 144 142 139 137 134 135 135 135 132 130 123 112 96 83
209 186 201 214 222 206 255 63 228 247 258 272 255 264 264 242 215 208 204 199 189 179 173 168 165 161 156 152 149 147 145 143 141 139 142 145 147 141 138 129 125 120 102 73
259 27 204 220 110 205 130 115 85 254 264 257 240 234 258 218 231 201 190 193 186 179 174 172 168 162 161 157 155 154 154 154 153 151 152 154 154 146 138 128 119 90 66 42
216 221 180 175 153 151 200 177 249 238 213 256 322 219 248 226 168 200 183 187 184 179 176 174 173 168 166 163 162 161 161 162 162 162 162 161 157 149 134 122 115 87 56 18
214 226 198 199 214 196 197 198 203 247 235 267 23 235 244 254 124 144 183 182 179 180 182 183 180 176 174 172 170 169 169 172 172 173 173 170 163 157 147 153 165 180 208 253
206 235 190 189 221 211 169 222 236 310 160 269 224 246 260 161 181 170 170 175 181 184 185 187 185 184 183 181 179 179 179 179 180 182 183 185 185 184 182 187 190 195 214 256
217 242 171 150 174 247 210 160 176 217 229 239 242 242 241 209 198 180 179 182 184 186 188 190 192 191 189 188 187 187 187 188 190 191 195 195 196 199 198 199 210 219 233 259
204 240 133 152 202 186 180 205 218 224 222 257 275 243 187 204 189 185 185 186 187 189 189 193 195 196 194 194 195 195 195 197 198 201 203 202 208 210 209 212 218 226 238 264
199 218 234 215 130 255 225 214 205 211 186 242 288 254 157 135 176 176 185 190 192 193 192 194 197 199 198 199 200 202 204 204 205 209 209 210 213 215 216 217 220 228 241 278
166 190 224 248 192 178 224 218 228 227 93 226 213 247 140 144 156 181 181 187 190 189 190 192 198 203 205 204 204 207 209 211 212 215 214 216 217 218 219 221 226 233 243 266
156 155 202 228 216 154 204 207 208 213 224 235 237 248 183 207 190 185 188 186 186 190 192 194 198 204 208 208 209 211 214 217 219 221 220 223 223 223 224 227 230 235 247 263
166 220 222 246 254 244 206 205 207 209 225 215 248 239 221 201 199 196 187 182 185 191 194 197 198 201 206 210 212 214 218 223 227 227 227 229 227 226 228 230 234 238 249 264
148 240 224 255 242 245 259 248 221 219 228 231 246 253 243 199 199 187 184 179 187 196 201 201 199 203 208 214 215 217 223 230 231 232 232 231 229 230 233 237 238 244 252 262
174 196 188 250 211 243 277 237 227 232 224 223 235 246 141 153 180 191 180 189 204 207 207 201 204 207 211 215 218 223 232 237 239 238 237 235 234 237 238 241 245 250 256 263
182 192 203 252 114 217 243 278 235 234 241 229 246 123 103 172 181 200 221 225 222 216 206 203 202 202 217 220 222 231 237 238 242 239 239 237 239 242 242 246 251 255 259 264
183 191 206 220 224 287 279 172 183 184 242 231 222 138 138 131 148 224 223 225 223 224 217 214 216 213 206 211 221 222 229 235 239 241 240 241 241 242 245 252 257 259 262 268
46 232 205 163 226 231 345 100 224 146 264 175 173 172 153 144 208 226 215 200 204 205 208 209 197 199 207 209 219 227 234 238 241 241 239 240 242 245 250 256 259 261 266 267
160 192 216 222 234 274 134 154 172 168 262 84 161 161 159 161 190 172 185 193 197 196 192 193 200 202 208 220 231 237 237 239 241 234 238 244 248 251 253 257 259 262 264 265
175 173 194 210 231 247 147 130 190 70 95 138 162 173 181 184 197 170 177 182 179 178 180 184 191 198 211 228 234 235 235 231 227 239 244 247 251 256 256 255 257 260 262 264
199 202 182 226 217 342 138 78 154 114 101 179 209 207 202 195 187 176 174 175 177 180 183 191 202 206 221 237 240 238 236 225 236 240 244 247 252 255 255 255 256 256 260 264
230 189 170 151 98 66 59 144 188 217 203 216 225 214 198 191 183 176 174 177 183 189 198 210 222 234 246 252 248 244 237 232 240 244 248 253 256 257 258 257 256 256 261 266
77 149 144 93 122 134 207 193 197 217 241 243 203 197 189 185 187 194 194 195 201 206 215 229 244 253 258 255 256 253 248 237 243 248 251 256 260 260 260 259 260 261 263 267
184 162 192 164 161 146 197 201 209 221 225 215 197 181 188 200 208 215 215 212 213 220 229 245 252 253 253 254 254 253 253 246 245 250 253 259 262 259 257 257 257 260 265 269